Year,Month,Day,Hour,Minute,Value (Times are PST for temperature in C)
2009,06,20,07,25,9.50
2009,06,20,07,26,9.50
2009,06,20,07,27,9.60
2009,06,20,07,28,9.60
2009,06,20,07,29,9.60
2009,06,20,07,30,9.60
2009,06,20,07,31,9.70
2009,06,20,07,32,9.70
2009,06,20,07,33,9.80
2009,06,20,07,34,9.80
2009,06,20,07,35,9.90
2009,06,20,07,36,10.00
2009,06,20,07,37,10.00
2009,06,20,07,38,10.10
2009,06,20,07,39,10.20
2009,06,20,07,40,10.20
2009,06,20,07,41,10.30
2009,06,20,07,42,10.30
2009,06,20,07,43,10.40
2009,06,20,07,44,10.50
2009,06,20,07,45,10.60
2009,06,20,07,46,10.60
2009,06,20,07,47,10.70
2009,06,20,07,48,10.80
2009,06,20,07,49,10.80
2009,06,20,07,50,10.80
2009,06,20,07,51,10.90
2009,06,20,07,52,10.90
2009,06,20,07,53,11.00
2009,06,20,07,54,11.10
2009,06,20,07,55,11.10
2009,06,20,07,56,11.20
2009,06,20,07,57,11.20
2009,06,20,07,58,11.20
2009,06,20,07,59,11.20
2009,06,20,08,00,11.30
2009,06,20,08,01,11.30
2009,06,20,08,02,11.40
2009,06,20,08,03,11.40
2009,06,20,08,04,11.40
2009,06,20,08,05,11.50
2009,06,20,08,06,11.50
2009,06,20,08,07,11.50
2009,06,20,08,08,11.60
2009,06,20,08,09,11.60
2009,06,20,08,10,11.60
2009,06,20,08,11,11.60
2009,06,20,08,12,11.70
2009,06,20,08,13,11.70
2009,06,20,08,14,11.80
2009,06,20,08,15,11.80
2009,06,20,08,16,11.80
2009,06,20,08,17,11.90
2009,06,20,08,18,11.90
2009,06,20,08,19,11.90
2009,06,20,08,20,11.90
2009,06,20,08,21,12.00
2009,06,20,08,22,12.00
2009,06,20,08,23,12.10
2009,06,20,08,24,12.10
2009,06,20,08,25,12.20
2009,06,20,08,26,12.30
2009,06,20,08,27,12.30
2009,06,20,08,28,12.30
2009,06,20,08,29,12.40
2009,06,20,08,30,12.50
2009,06,20,08,31,12.50
2009,06,20,08,32,12.50
2009,06,20,08,33,12.50
2009,06,20,08,34,12.60
2009,06,20,08,35,12.60
2009,06,20,08,36,12.60
2009,06,20,08,37,12.60
2009,06,20,08,38,12.60
2009,06,20,08,39,12.60
2009,06,20,08,40,12.70
2009,06,20,08,41,12.70
2009,06,20,08,42,12.80
2009,06,20,08,43,12.80
2009,06,20,08,44,12.90
2009,06,20,08,45,13.00
2009,06,20,08,46,13.00
2009,06,20,08,47,12.90
2009,06,20,08,48,12.90
2009,06,20,08,49,12.90
2009,06,20,08,50,12.90
2009,06,20,08,51,13.00
2009,06,20,08,52,12.90
2009,06,20,08,53,12.90
2009,06,20,08,54,12.80
2009,06,20,08,55,12.80
2009,06,20,08,56,12.80
2009,06,20,08,57,12.80
2009,06,20,08,58,12.80
2009,06,20,08,59,12.90
2009,06,20,09,00,12.90
2009,06,20,09,01,12.90
2009,06,20,09,02,12.90
2009,06,20,09,03,13.00
2009,06,20,09,04,13.00
2009,06,20,09,05,13.10
2009,06,20,09,06,13.20
2009,06,20,09,07,13.20
2009,06,20,09,08,13.30
2009,06,20,09,09,13.30
2009,06,20,09,10,13.40
2009,06,20,09,11,13.50
2009,06,20,09,12,13.50
2009,06,20,09,13,13.60
2009,06,20,09,14,13.70
2009,06,20,09,15,13.80
2009,06,20,09,16,13.90
2009,06,20,09,17,14.00
2009,06,20,09,18,14.10
2009,06,20,09,19,14.20
2009,06,20,09,20,14.20
2009,06,20,09,21,14.40
2009,06,20,09,22,14.40
2009,06,20,09,23,14.50
2009,06,20,09,24,14.60
2009,06,20,09,25,14.70
2009,06,20,09,26,14.70
2009,06,20,09,27,14.80
2009,06,20,09,28,14.90
2009,06,20,09,29,15.00
2009,06,20,09,30,15.00
2009,06,20,09,31,15.00
2009,06,20,09,32,15.00
2009,06,20,09,33,15.00
2009,06,20,09,34,15.00
2009,06,20,09,35,15.00
2009,06,20,09,36,15.00
2009,06,20,09,37,15.00
2009,06,20,09,38,15.00
2009,06,20,09,39,14.90
2009,06,20,09,40,14.80
2009,06,20,09,41,14.80
2009,06,20,09,42,14.90
2009,06,20,09,43,15.00
2009,06,20,09,44,15.00
2009,06,20,09,45,15.00
2009,06,20,09,46,15.00
2009,06,20,09,47,15.00
2009,06,20,09,48,15.00
2009,06,20,09,49,15.00
2009,06,20,09,50,15.00
2009,06,20,09,51,15.00
2009,06,20,09,52,15.00
2009,06,20,09,53,14.90
2009,06,20,09,54,14.90
2009,06,20,09,55,14.90
2009,06,20,09,56,15.00
2009,06,20,09,57,15.00
2009,06,20,09,58,15.00
2009,06,20,09,59,15.00
2009,06,20,10,00,15.00
2009,06,20,10,01,15.00
2009,06,20,10,02,15.10
2009,06,20,10,03,15.10
2009,06,20,10,04,15.00
2009,06,20,10,05,15.00
2009,06,20,10,06,15.00
2009,06,20,10,07,15.10
2009,06,20,10,08,15.20
2009,06,20,10,09,15.30
2009,06,20,10,10,15.30
2009,06,20,10,11,15.20
2009,06,20,10,12,15.30
2009,06,20,10,13,15.40
2009,06,20,10,14,15.40
2009,06,20,10,15,15.30
2009,06,20,10,16,15.30
2009,06,20,10,17,15.30
2009,06,20,10,18,15.30
2009,06,20,10,19,15.30
2009,06,20,10,20,15.30
2009,06,20,10,21,15.30
2009,06,20,10,22,15.40
2009,06,20,10,23,15.50
2009,06,20,10,24,15.60
2009,06,20,10,25,15.70
2009,06,20,10,26,15.70
2009,06,20,10,27,15.70
2009,06,20,10,28,15.70
2009,06,20,10,29,15.60
2009,06,20,10,30,15.50
2009,06,20,10,31,15.40
2009,06,20,10,32,15.50
2009,06,20,10,33,15.50
2009,06,20,10,34,15.50
2009,06,20,10,35,15.60
2009,06,20,10,36,15.60
2009,06,20,10,37,15.60
2009,06,20,10,38,15.50
2009,06,20,10,39,15.40
2009,06,20,10,40,15.40
2009,06,20,10,41,15.40
2009,06,20,10,42,15.40
2009,06,20,10,43,15.40
2009,06,20,10,44,15.50
2009,06,20,10,45,15.50
2009,06,20,10,46,15.50
2009,06,20,10,47,15.40
2009,06,20,10,48,15.40
2009,06,20,10,49,15.30
2009,06,20,10,50,15.20
2009,06,20,10,51,15.10
2009,06,20,10,52,15.00
2009,06,20,10,53,15.00
2009,06,20,10,54,15.10
2009,06,20,10,55,15.20
2009,06,20,10,56,15.30
2009,06,20,10,57,15.50
2009,06,20,10,58,15.60
2009,06,20,10,59,15.80
2009,06,20,11,00,15.90
2009,06,20,11,01,15.90
2009,06,20,11,02,15.90
2009,06,20,11,03,15.90
2009,06,20,11,04,15.90
2009,06,20,11,05,16.00
2009,06,20,11,06,16.00
2009,06,20,11,07,16.10
2009,06,20,11,08,16.20
2009,06,20,11,09,16.20
2009,06,20,11,10,16.20
2009,06,20,11,11,16.20
2009,06,20,11,12,16.20
2009,06,20,11,13,16.20
2009,06,20,11,14,16.20
2009,06,20,11,15,16.20
2009,06,20,11,16,16.20
2009,06,20,11,17,16.30
2009,06,20,11,18,16.30
2009,06,20,11,19,16.30
2009,06,20,11,20,16.30
2009,06,20,11,21,16.40
2009,06,20,11,22,16.30
2009,06,20,11,23,16.20
2009,06,20,11,24,16.10
2009,06,20,11,25,16.00
2009,06,20,11,26,16.00
2009,06,20,11,27,16.00
2009,06,20,11,28,16.00
2009,06,20,11,29,16.00
2009,06,20,11,30,16.00
2009,06,20,11,31,16.00
2009,06,20,11,32,16.00
2009,06,20,11,33,16.00
2009,06,20,11,34,16.10
2009,06,20,11,35,16.10
2009,06,20,11,36,16.20
2009,06,20,11,37,16.30
2009,06,20,11,38,16.40
2009,06,20,11,39,16.30
2009,06,20,11,40,16.30
2009,06,20,11,41,16.20
2009,06,20,11,42,16.20
2009,06,20,11,43,16.20
2009,06,20,11,44,16.10
2009,06,20,11,45,16.00
2009,06,20,11,46,16.00
2009,06,20,11,47,16.10
2009,06,20,11,48,16.20
2009,06,20,11,49,16.20
2009,06,20,11,50,16.20
2009,06,20,11,51,16.10
2009,06,20,11,52,16.10
2009,06,20,11,53,16.00
2009,06,20,11,54,16.00
2009,06,20,11,55,16.00
2009,06,20,11,56,15.90
2009,06,20,11,57,15.90
2009,06,20,11,58,15.90
2009,06,20,11,59,16.00
2009,06,20,12,00,16.10
2009,06,20,12,01,16.10
2009,06,20,12,02,16.20
2009,06,20,12,03,16.20
2009,06,20,12,04,16.20
2009,06,20,12,05,16.30
2009,06,20,12,06,16.30
2009,06,20,12,07,16.40
2009,06,20,12,08,16.50
2009,06,20,12,09,16.60
2009,06,20,12,10,16.70
2009,06,20,12,11,16.80
2009,06,20,12,12,16.90
2009,06,20,12,13,16.90
2009,06,20,12,14,16.90
2009,06,20,12,15,16.90
2009,06,20,12,16,16.90
2009,06,20,12,17,16.90
2009,06,20,12,18,16.90
2009,06,20,12,19,16.90
2009,06,20,12,20,16.90
2009,06,20,12,21,16.80
2009,06,20,12,22,16.80
2009,06,20,12,23,16.80
2009,06,20,12,24,16.70
2009,06,20,12,25,16.70
2009,06,20,12,26,16.80
2009,06,20,12,27,17.00
2009,06,20,12,28,17.20
2009,06,20,12,29,17.40
2009,06,20,12,30,17.60
2009,06,20,12,31,17.70
2009,06,20,12,32,17.90
2009,06,20,12,33,17.90
2009,06,20,12,34,17.90
2009,06,20,12,35,18.00
2009,06,20,12,36,18.10
2009,06,20,12,37,18.10
2009,06,20,12,38,18.20
2009,06,20,12,39,18.20
2009,06,20,12,40,18.20
2009,06,20,12,41,18.20
2009,06,20,12,42,18.30
2009,06,20,12,43,18.20
2009,06,20,12,44,18.20
2009,06,20,12,45,18.10
2009,06,20,12,46,17.90
2009,06,20,12,47,17.80
2009,06,20,12,48,17.60
2009,06,20,12,49,17.60
2009,06,20,12,50,17.60
2009,06,20,12,51,17.60
2009,06,20,12,52,17.50
2009,06,20,12,53,17.50
2009,06,20,12,54,17.40
2009,06,20,12,55,17.20
2009,06,20,12,56,17.20
2009,06,20,12,57,17.10
2009,06,20,12,58,17.10
2009,06,20,12,59,17.20
2009,06,20,13,00,17.20
2009,06,20,13,01,17.30
2009,06,20,13,02,17.40
2009,06,20,13,03,17.40
2009,06,20,13,04,17.60
2009,06,20,13,05,17.60
2009,06,20,13,06,17.70
2009,06,20,13,07,17.70
2009,06,20,13,08,17.70
2009,06,20,13,09,17.70
2009,06,20,13,10,17.70
2009,06,20,13,11,17.70
2009,06,20,13,12,17.70
2009,06,20,13,13,17.70
2009,06,20,13,14,17.80
2009,06,20,13,15,17.80
2009,06,20,13,16,17.80
2009,06,20,13,17,17.90
2009,06,20,13,18,18.00
2009,06,20,13,19,18.10
2009,06,20,13,20,18.30
2009,06,20,13,21,18.40
2009,06,20,13,22,18.50
2009,06,20,13,23,18.60
2009,06,20,13,24,18.50
2009,06,20,13,25,18.40
2009,06,20,13,26,18.30
2009,06,20,13,27,18.20
2009,06,20,13,28,18.20
2009,06,20,13,29,18.20
2009,06,20,13,30,18.10
2009,06,20,13,31,18.00
2009,06,20,13,32,18.00
2009,06,20,13,33,17.90
2009,06,20,13,34,17.90
2009,06,20,13,35,17.90
2009,06,20,13,36,18.00
2009,06,20,13,37,18.10
2009,06,20,13,38,18.20
2009,06,20,13,39,18.20
2009,06,20,13,40,18.10
2009,06,20,13,41,18.20
2009,06,20,13,42,18.10
2009,06,20,13,43,18.00
2009,06,20,13,44,18.00
2009,06,20,13,45,18.10
2009,06,20,13,46,18.10
2009,06,20,13,47,18.20
2009,06,20,13,48,18.20
2009,06,20,13,49,18.20
2009,06,20,13,50,18.20
2009,06,20,13,51,18.20
2009,06,20,13,52,18.30
2009,06,20,13,53,18.40
2009,06,20,13,54,18.40
2009,06,20,13,55,18.40
2009,06,20,13,56,18.50
2009,06,20,13,57,18.40
2009,06,20,13,58,18.30
2009,06,20,13,59,18.20
2009,06,20,14,00,18.00
2009,06,20,14,01,17.80
2009,06,20,14,02,17.70
2009,06,20,14,03,17.70
2009,06,20,14,04,17.80
2009,06,20,14,05,17.80
2009,06,20,14,06,17.80
2009,06,20,14,07,17.90
2009,06,20,14,08,18.00
2009,06,20,14,09,18.00
2009,06,20,14,10,18.00
2009,06,20,14,11,17.90
2009,06,20,14,12,17.90
2009,06,20,14,13,17.90
2009,06,20,14,14,17.80
2009,06,20,14,15,17.70
2009,06,20,14,16,17.60
2009,06,20,14,17,17.50
2009,06,20,14,18,17.50
2009,06,20,14,19,17.50
2009,06,20,14,20,17.50
2009,06,20,14,21,17.60
2009,06,20,14,22,17.60
2009,06,20,14,23,17.80
2009,06,20,14,24,17.90
2009,06,20,14,25,17.90
2009,06,20,14,26,17.90
2009,06,20,14,27,17.80
2009,06,20,14,28,17.80
2009,06,20,14,29,17.70
2009,06,20,14,30,17.70
2009,06,20,14,31,17.70
2009,06,20,14,32,17.80
2009,06,20,14,33,17.80
2009,06,20,14,34,17.90
2009,06,20,14,35,18.00
2009,06,20,14,36,18.10
2009,06,20,14,37,18.20
2009,06,20,14,38,18.10
2009,06,20,14,39,17.90
2009,06,20,14,40,17.80
2009,06,20,14,41,17.70
2009,06,20,14,42,17.80
2009,06,20,14,43,17.90
2009,06,20,14,44,17.90
2009,06,20,14,45,18.00
2009,06,20,14,46,18.10
2009,06,20,14,47,18.20
2009,06,20,14,48,18.30
2009,06,20,14,49,18.50
2009,06,20,14,50,18.40
2009,06,20,14,51,18.30
2009,06,20,14,52,18.20
2009,06,20,14,53,18.20
2009,06,20,14,54,18.20
2009,06,20,14,55,18.20
2009,06,20,14,56,18.20
2009,06,20,14,57,18.30
2009,06,20,14,58,18.30
2009,06,20,14,59,18.40
2009,06,20,15,00,18.50
2009,06,20,15,01,18.50
2009,06,20,15,02,18.60
2009,06,20,15,03,18.70
2009,06,20,15,04,18.80
2009,06,20,15,05,18.90
2009,06,20,15,06,18.90
2009,06,20,15,07,18.90
2009,06,20,15,08,18.60
2009,06,20,15,09,18.30
2009,06,20,15,10,18.20
2009,06,20,15,11,18.10
2009,06,20,15,12,18.10
2009,06,20,15,13,18.00
2009,06,20,15,14,18.00
2009,06,20,15,15,17.90
2009,06,20,15,16,17.80
2009,06,20,15,17,17.70
2009,06,20,15,18,17.70
2009,06,20,15,19,17.70
2009,06,20,15,20,17.70
2009,06,20,15,21,17.70
2009,06,20,15,22,17.60
2009,06,20,15,23,17.50
2009,06,20,15,24,17.40
2009,06,20,15,25,17.40
2009,06,20,15,26,17.40
2009,06,20,15,27,17.40
2009,06,20,15,28,17.40
2009,06,20,15,29,17.40
2009,06,20,15,30,17.40
2009,06,20,15,31,17.50
2009,06,20,15,32,17.50
2009,06,20,15,33,17.60
2009,06,20,15,34,17.60
2009,06,20,15,35,17.70
2009,06,20,15,36,17.70
2009,06,20,15,37,17.80
2009,06,20,15,38,17.80
2009,06,20,15,39,17.80
2009,06,20,15,40,17.70
2009,06,20,15,41,17.60
2009,06,20,15,42,17.60
2009,06,20,15,43,17.50
2009,06,20,15,44,17.40
2009,06,20,15,45,17.30
2009,06,20,15,46,17.30
2009,06,20,15,47,17.30
2009,06,20,15,48,17.30
2009,06,20,15,49,17.30
2009,06,20,15,50,17.40
2009,06,20,15,51,17.30
2009,06,20,15,52,17.20
2009,06,20,15,53,17.10
2009,06,20,15,54,17.10
2009,06,20,15,55,17.00
2009,06,20,15,56,17.00
2009,06,20,15,57,17.00
2009,06,20,15,58,17.00
2009,06,20,15,59,17.00
2009,06,20,16,00,16.90
2009,06,20,16,01,16.90
2009,06,20,16,02,16.80
2009,06,20,16,03,16.80
2009,06,20,16,04,16.70
2009,06,20,16,05,16.70
2009,06,20,16,06,16.60
2009,06,20,16,07,16.60
2009,06,20,16,08,16.50
2009,06,20,16,09,16.50
2009,06,20,16,10,16.50
2009,06,20,16,11,16.40
2009,06,20,16,12,16.40
2009,06,20,16,13,16.40
2009,06,20,16,14,16.40
2009,06,20,16,15,16.40
2009,06,20,16,16,16.40
2009,06,20,16,17,16.40
2009,06,20,16,18,16.40
2009,06,20,16,19,16.50
2009,06,20,16,20,16.50
2009,06,20,16,21,16.60
2009,06,20,16,22,16.70
2009,06,20,16,23,16.80
2009,06,20,16,24,16.90
2009,06,20,16,25,16.90
2009,06,20,16,26,17.00
2009,06,20,16,27,17.10
2009,06,20,16,28,17.10
2009,06,20,16,29,17.10
2009,06,20,16,30,17.10
2009,06,20,16,31,17.20
2009,06,20,16,32,17.20
2009,06,20,16,33,17.20
2009,06,20,16,34,17.30
2009,06,20,16,35,17.30
2009,06,20,16,36,17.20
2009,06,20,16,37,17.20
2009,06,20,16,38,17.20
2009,06,20,16,39,17.30
2009,06,20,16,40,17.30
2009,06,20,16,41,17.30
2009,06,20,16,42,17.40
2009,06,20,16,43,17.40
2009,06,20,16,44,17.30
2009,06,20,16,45,17.30
2009,06,20,16,46,17.30
2009,06,20,16,47,17.30
2009,06,20,16,48,17.20
2009,06,20,16,49,17.20
2009,06,20,16,50,17.20
2009,06,20,16,51,17.20
2009,06,20,16,52,17.20
2009,06,20,16,53,17.20
2009,06,20,16,54,17.20
2009,06,20,16,55,17.10
2009,06,20,16,56,17.10
2009,06,20,16,57,17.20
2009,06,20,16,58,17.20
2009,06,20,16,59,17.30
2009,06,20,17,00,17.40
2009,06,20,17,01,17.50
2009,06,20,17,02,17.50
2009,06,20,17,03,17.50
2009,06,20,17,04,17.50
2009,06,20,17,05,17.60
2009,06,20,17,06,17.60
2009,06,20,17,07,17.60
2009,06,20,17,08,17.60
2009,06,20,17,09,17.60
2009,06,20,17,10,17.50
2009,06,20,17,11,17.50
2009,06,20,17,12,17.40
2009,06,20,17,13,17.40
2009,06,20,17,14,17.50
2009,06,20,17,15,17.50
2009,06,20,17,16,17.50
2009,06,20,17,17,17.50
2009,06,20,17,18,17.40
2009,06,20,17,19,17.40
2009,06,20,17,20,17.40
2009,06,20,17,21,17.40
2009,06,20,17,22,17.40
2009,06,20,17,23,17.30
2009,06,20,17,24,17.30
2009,06,20,17,25,17.30
2009,06,20,17,26,17.30
2009,06,20,17,27,17.20
2009,06,20,17,28,17.10
2009,06,20,17,29,17.10
2009,06,20,17,30,17.10
2009,06,20,17,31,17.10
2009,06,20,17,32,17.00
2009,06,20,17,33,17.10
2009,06,20,17,34,17.10
2009,06,20,17,35,17.10
2009,06,20,17,36,17.10
2009,06,20,17,37,17.10
2009,06,20,17,38,17.20
2009,06,20,17,39,17.20
2009,06,20,17,40,17.30
2009,06,20,17,41,17.30
2009,06,20,17,42,17.30
2009,06,20,17,43,17.30
2009,06,20,17,44,17.40
2009,06,20,17,45,17.40
2009,06,20,17,46,17.40
2009,06,20,17,47,17.40
2009,06,20,17,48,17.40
2009,06,20,17,49,17.30
2009,06,20,17,50,17.20
2009,06,20,17,51,17.20
2009,06,20,17,52,17.20
2009,06,20,17,53,17.10
2009,06,20,17,54,17.10
2009,06,20,17,55,17.00
2009,06,20,17,56,16.90
2009,06,20,17,57,16.90
2009,06,20,17,58,16.80
2009,06,20,17,59,16.80
2009,06,20,18,00,16.70
2009,06,20,18,01,16.70
2009,06,20,18,02,16.70
2009,06,20,18,03,16.70
2009,06,20,18,04,16.70
2009,06,20,18,05,16.70
2009,06,20,18,06,16.80
2009,06,20,18,07,16.80
2009,06,20,18,08,16.80
2009,06,20,18,09,16.80
2009,06,20,18,10,16.80
2009,06,20,18,11,16.80
2009,06,20,18,12,16.70
2009,06,20,18,13,16.70
2009,06,20,18,14,16.70
2009,06,20,18,15,16.70
2009,06,20,18,16,16.70
2009,06,20,18,17,16.70
2009,06,20,18,18,16.70
2009,06,20,18,19,16.70
2009,06,20,18,20,16.80
2009,06,20,18,21,16.80
2009,06,20,18,22,16.80
2009,06,20,18,23,16.80
2009,06,20,18,24,16.70
2009,06,20,18,25,16.60
2009,06,20,18,26,16.50
2009,06,20,18,27,16.50
2009,06,20,18,28,16.30
2009,06,20,18,29,16.30
2009,06,20,18,30,16.20
2009,06,20,18,31,16.10
2009,06,20,18,32,16.00
2009,06,20,18,33,16.00
2009,06,20,18,34,15.90
2009,06,20,18,35,15.90
2009,06,20,18,36,15.80
2009,06,20,18,37,15.80
2009,06,20,18,38,15.70
2009,06,20,18,39,15.70
2009,06,20,18,40,15.60
2009,06,20,18,41,15.60
2009,06,20,18,42,15.60
2009,06,20,18,43,15.50
2009,06,20,18,44,15.40
2009,06,20,18,45,15.30
2009,06,20,18,46,15.30
2009,06,20,18,47,15.20
2009,06,20,18,48,15.20
2009,06,20,18,49,15.20
2009,06,20,18,50,15.20
2009,06,20,18,51,15.30
2009,06,20,18,52,15.30
2009,06,20,18,53,15.30
2009,06,20,18,54,15.30
2009,06,20,18,55,15.40
2009,06,20,18,56,15.40
2009,06,20,18,57,15.50
2009,06,20,18,58,15.50
2009,06,20,18,59,15.50
2009,06,20,19,00,15.40
2009,06,20,19,01,15.40
2009,06,20,19,02,15.30
2009,06,20,19,03,15.30
2009,06,20,19,04,15.30
2009,06,20,19,05,15.30
2009,06,20,19,06,15.30
2009,06,20,19,07,15.40
2009,06,20,19,08,15.40
2009,06,20,19,09,15.40
2009,06,20,19,10,15.40
2009,06,20,19,11,15.40
2009,06,20,19,12,15.40
2009,06,20,19,13,15.40
2009,06,20,19,14,15.40
2009,06,20,19,15,15.40
2009,06,20,19,16,15.40
2009,06,20,19,17,15.40
